TJS-17

Last updated on Sun Apr 12 2026 00:02:57 GMT+0000 (Coordinated Universal Time)

1 63524U 25073A 26101.80064741 -.00000067 00000+0 00000+0 0 9999 2 63524 0.8912 83.1259 0003808 271.8238 297.7963 1.00271940 3628
UTC large
Height (km)
Speed (km/s)
/
Latitude / Longitude
Inclination (degrees)
Orbital Period (minutes)
Azimuth
Elevation
Range (km)
Doppler Factor

Next 0 passes for location: London (51.5072 / 0.1276)

Sorry there are no passes over London.
TJS-17